Location: Saratoga Springs
(43.0831°N, 73.7850°W)
Time: 04:33:12
(UTC-04:00)

SR - Visible Passes

Search period start: 17 April 2024 00:00
Search period end: 27 April 2024 00:00
Orbit: 577 x 863 km, 66.7° (Epoch: 16 April)

Date Brightness Start Highest point End Pass type
(mag) Time Alt. Az. Time Alt. Az. Time Alt. Az.
17 Apr ? 01:45:32 11° E 01:45:32 11° E 01:46:07 10° ENE visible
17 Apr ? 03:24:46 83° SSW 03:25:00 88° ESE 03:30:16 10° NNE visible
17 Apr ? 05:04:00 11° W 05:07:31 18° NW 05:11:03 10° N visible
18 Apr ? 02:34:05 39° E 02:34:05 39° E 02:38:01 10° NE visible
18 Apr ? 04:13:19 26° W 04:15:02 31° NW 04:19:38 10° NNE visible
19 Apr ? 01:43:21 17° ENE 01:43:21 17° ENE 01:45:12 10° ENE visible
19 Apr ? 03:22:35 57° WNW 03:22:45 58° NW 03:27:52 10° NNE visible
19 Apr ? 05:03:27 10° WNW 05:05:39 12° NW 05:07:49 10° N visible
20 Apr ? 02:31:48 54° NE 02:31:48 54° NE 02:35:51 10° NE visible
20 Apr ? 04:11:01 17° WNW 04:13:00 21° NW 04:16:51 10° N visible
21 Apr ? 01:40:58 25° ENE 01:40:58 25° ENE 01:43:27 10° NE visible
21 Apr ? 03:20:11 36° WNW 03:20:33 36° NW 03:25:18 10° NNE visible
22 Apr ? 00:50:05 11° ENE 00:50:05 11° ENE 00:50:21 10° ENE visible
22 Apr ? 02:29:18 55° N 02:29:18 55° N 02:33:27 10° NNE visible
22 Apr ? 04:08:31 11° WNW 04:11:01 14° NW 04:13:45 10° N visible
23 Apr ? 01:38:22 34° NE 01:38:22 34° NE 01:41:18 10° NE visible
23 Apr ? 03:17:35 23° WNW 03:18:24 24° NW 03:22:32 10° N visible
24 Apr ? 00:47:23 17° ENE 00:47:23 17° ENE 00:48:44 10° NE visible
24 Apr ? 02:26:36 41° NW 02:26:36 41° NW 02:30:52 10° NNE visible
25 Apr ? 01:35:35 42° NNE 01:35:35 42° NNE 01:38:54 10° NNE visible
25 Apr ? 03:14:47 15° WNW 03:16:18 16° NW 03:19:30 10° N visible
26 Apr ? 00:44:29 24° NE 00:44:29 24° NE 00:46:38 10° NE visible
26 Apr ? 02:23:42 28° NW 02:23:44 28° NW 02:28:05 10° N visible
26 Apr ? 23:53:21 12° ENE 23:53:21 12° ENE 23:53:51 10° ENE visible
